Weather in Nowogrod

Poland     53°13′40″N   21°52′45″E
temp.,
°C
wind,
m/s
gust,
m/s
humid.,
%
clouds,
%
prec.,
mm/h
press.,
hPa
HPBL,
m
21 april, wed
wed2123:00+10wsw1168100 0.0 101111
02:00+8w1174100 0.0 101110
05:00+6w228184 0.0 101030
08:00+9wnw4677100 0.0 1010331
11:00+12wsw336440 0.2 1010743
14:00+14w4550100 0.6 10091830
17:00+15wsw354599 0.0 10071912
20:00+10w357362 0.3 100878
22 april, thu
thu2223:00+8nw227813 0.1 100816
02:00+5nw229275 0.3 100938
05:00+6w5891100 0.3 1009893
08:00+5w797498 0.8 1011999
11:00+8wsw795788 0.0 10121662
14:00+9wsw9115099 0.6 10122247
17:00+7wsw8126825 0.9 10121479
20:00+3w377962 1.3 1013145
23 april, fri
fri2323:00+2wsw51183100 0.1 1013402
02:00+1wsw5128843 0.1 1014583
05:00+2wnw61182100 0.0 1014910
08:00+4w711747 0.0 1016849
11:00+7wnw71049100 0.2 10162280
14:00+7nw685999 0.9 10161538
17:00+4nw3878100 3.7 1016981
20:00+2nw510725 3.9 1018285
24 april, sat
sat2423:00−1wnw49885 0.0 1020219
02:00−1w4128465 0.0 1020298
05:00−1w4108510 0.0 1020198
08:00+4w612655 0.0 1020619
11:00+8wnw71041100 0.0 10192998
14:00+8nw81045100 0.1 10192214
17:00+6wnw695288 0.2 10191598
20:00+3nw595572 0.2 1020385
25 april, sun
sun2523:00−2wnw48775 0.0 1021201
02:00−2wnw410906 0.0 1022282
05:00−2wnw5119568 0.0 1022320
08:00+3wnw6106763 0.0 1022888
11:00+6w81049100 0.3 10212101
14:00+8wnw8114587 1.2 10192318
17:00+7nw812465 0.3 10192293
20:00+1nw510600 0.3 1021264